Погода в Кальвии

Испания     39°33′53″N   2°30′13″E
темп.,
°C
ветер,
м/с
пор.,
м/с
влажн.,
%
обл.,
%
осадки,
мм/ч
давл.,
гПа
погр.,
м
16 апреля, пт
пт1623:00+12всв5765100 0.0 1017491
02:00+11ссв3471100 0.0 1016264
05:00+10св2267100 0.0 1015112
08:00+10ссв2365100 0.0 1015117
11:00+14ссв235051 0.0 1016763
14:00+16всв124694 0.0 10151463
17:00+15с125026 0.1 10151051
20:00+12всв556616 0.6 1016325
17 апреля, сб
сб1723:00+10св447011 0.1 1018177
02:00+9с33615 0.1 1018106
05:00+9ссв23605 0.0 1017102
08:00+10с345962 0.0 1018162
11:00+12с3342100 0.0 10181810
14:00+10ссв2259100 0.4 10181145
17:00+10ю346870 0.4 1018748
20:00+10ююз347396 0.4 1018428
18 апреля, вс
вс1823:00+9з117740 0.5 1020225
02:00+8сз337821 0.8 1019216
05:00+9зсз347529 0.0 1018336
08:00+10сз357415 0.5 1019500
11:00+13зсз33579 0.3 1020887
14:00+14зсз55580 0.4 10201013
17:00+13з56590 0.0 1020826
20:00+12з33610 0.0 1020314
19 апреля, пн
пн1923:00+11ююз34680 0.0 1022338
02:00+12юз44715 0.0 1021390
05:00+12юз45735 0.0 1020440
08:00+13ююз457726 0.0 1019405
11:00+15ююз566930 0.0 1018752
14:00+16ююз56695 0.0 1017766
17:00+16ююз5569100 0.0 1015573
20:00+15ююв3477100 0.0 1014216
20 апреля, вт
вт2023:00+14юв2280100 0.0 101545
02:00+14ююв2380100 0.0 101463
05:00+14вюв3376100 0.0 101285
08:00+14вюв2278100 0.0 1012101
11:00+13с3378100 2.3 1013182
14:00+14з2272100 2.6 1013413
17:00+12ююз128777 0.6 1012315
20:00+13сз118329 0.8 1012179